Lancaster, PA

5:51 AM EST on November 13, 2019 (GMT -0500)
Lancaster

Weather History for KLNS - October, 2019

Change the Weather History Date:

Saturday, October 19, 2019

  Actual Average Record
Temperature  
Mean Temperature 50 °F -  
Max Temperature 64 °F 62 °F 86 °F (2016)
Min Temperature 37 °F 42 °F 28 °F (1986)
Degree Days  
Heating Degree Days 15    
Moisture  
Dew Point 38 °F    
Average Humidity 66    
Maximum Humidity 86    
Minimum Humidity 40    
Precipitation  
Precipitation 0.00 in - - ()
Sea Level Pressure  
Sea Level Pressure 30.06 in    
Wind  
Wind Speed 4 mph (SW)    
Max Wind Speed 7 mph    
Max Gust Speed -    
Visibility 10 miles    
Events      
Averages and records for this station are not official NWS values.
T = Trace of Precipitation, MM = Missing Value Source: NWS Daily Summary

Daily Weather History Graph

Daily Weather History Graph

Search for Another Location

Airport or City:

Astronomy

Oct. 19, 2019 Rise Set
Actual Time 7:19 AM EDT 6:19 PM EDT
Civil Twilight 6:52 AM EDT 6:47 PM EDT
Nautical Twilight 6:20 AM EDT 7:18 PM EDT
Astronomical Twilight 5:49 AM EDT 7:50 PM EDT
Moon 10:26 PM EDT (10/19) 12:50 PM EDT (10/19)
Length of Visible Light 11h 55m
Length of Day
11h 00m
Waning Gibbous, 70% of the Moon is Illuminated
Oct 19
Waning Gibbous
Oct 21
Last Quarter
Oct 27
New
Nov 4
First Quarter
Nov 12
Full

Hourly Weather History & Observations

Time (EDT) Temp. Windchill Dew Point Humidity Pressure Visibility Wind Dir Wind Speed Gust Speed Precip Events Conditions
12:53 AM 43.0 °F 40.3 °F 35.1 °F 74% 30.06 in 10.0 mi WNW 4.6 mph - N/A   Clear
1:53 AM 39.0 °F 36.8 °F 34.0 °F 82% 30.06 in 10.0 mi SW 3.5 mph - N/A   Clear
2:53 AM 39.9 °F - 35.1 °F 83% 30.05 in 10.0 mi Calm Calm - N/A   Clear
3:53 AM 37.9 °F 35.5 °F 33.1 °F 83% 30.04 in 10.0 mi NNW 3.5 mph - N/A   Clear
4:53 AM 37.9 °F 33.5 °F 34.0 °F 86% 30.07 in 10.0 mi West 5.8 mph - N/A   Clear
5:53 AM 37.0 °F 32.4 °F 33.1 °F 86% 30.09 in 10.0 mi WSW 5.8 mph - N/A   Clear
6:53 AM 37.9 °F 34.4 °F 33.1 °F 83% 30.11 in 10.0 mi WNW 4.6 mph - N/A   Clear
7:53 AM 37.0 °F - 33.1 °F 86% 30.12 in 10.0 mi Calm Calm - N/A   Clear
8:53 AM 43.0 °F - 37.0 °F 80% 30.13 in 10.0 mi Calm Calm - N/A   Clear
9:53 AM 48.9 °F - 39.0 °F 69% 30.13 in 10.0 mi WNW 3.5 mph - N/A   Clear
10:53 AM 53.1 °F - 37.9 °F 57% 30.12 in 10.0 mi SSW 3.5 mph - N/A   Clear
11:53 AM 55.9 °F - 37.9 °F 51% 30.11 in 10.0 mi SW 3.5 mph - N/A   Clear
12:53 PM 59.0 °F - 37.9 °F 46% 30.09 in 10.0 mi Variable 3.5 mph - N/A   Clear
1:53 PM 61.0 °F - 39.0 °F 44% 30.07 in 10.0 mi WNW 4.6 mph - N/A   Clear
2:53 PM 62.1 °F - 37.9 °F 41% 30.04 in 10.0 mi South 4.6 mph - N/A   Clear
3:53 PM 63.0 °F - 37.9 °F 40% 30.04 in 10.0 mi Calm Calm - N/A   Clear
4:53 PM 62.1 °F - 39.0 °F 43% 30.02 in 10.0 mi WSW 4.6 mph - N/A   Clear
5:53 PM 57.9 °F - 42.1 °F 56% 30.01 in 10.0 mi SE 4.6 mph - N/A   Clear
6:53 PM 57.0 °F - 42.1 °F 57% 30.02 in 10.0 mi SSE 5.8 mph - N/A   Clear
7:53 PM 55.9 °F - 42.1 °F 60% 30.03 in 10.0 mi South 6.9 mph - N/A   Clear
8:53 PM 55.0 °F - 42.1 °F 62% 30.03 in 10.0 mi South 3.5 mph - N/A   Clear
9:53 PM 52.0 °F - 43.0 °F 71% 30.03 in 10.0 mi ESE 3.5 mph - N/A   Clear
10:53 PM 50.0 °F - 43.0 °F 77% 30.02 in 10.0 mi SE 4.6 mph - N/A   Clear
11:53 PM 48.9 °F - 42.1 °F 77% 30.01 in 8.0 mi East 4.6 mph - N/A   Clear